Location: Huntsville
(34.7300°N, 86.5860°W)
Time: 00:47:36
(UTC-06:00)

Daily predictions for brighter satellites

Satellite Brightness Start Highest point End
(mag) Time Altitude Azimuth Time Altitude Azimuth Time Altitude Azimuth
CZ-3C R/B 4.5 02:31:24 23° SE 02:31:24 23° SE 02:43:39 10° E
USA 215 3.7 03:32:23 10° NE 03:37:30 56° ENE 03:37:30 56° ENE
CZ-3 R/B 4.2 03:38:32 10° SW 03:54:37 26° S 04:00:38 10° ESE
CENTAUR R/B 2.9 03:57:18 54° NNE 03:57:18 54° NNE 04:02:21 10° NNE
SL-24 R/B - RUBIN 2 4.4 04:09:04 68° SSE 04:09:04 68° SSE 04:13:54 10° SSE
Thor Agena Rocket 3.8 04:07:06 10° SSE 04:11:26 63° SE 04:11:26 63° SE
Cosmos 2181 Rocket 4.2 04:12:39 13° N 04:18:27 72° E 04:24:46 10° SSE
Cosmos 1709 Rocket 3.9 04:16:35 10° SSW 04:23:33 61° NNW 04:28:50 10° N
Cosmos 2278 Rocket 2.1 04:27:05 65° SW 04:27:05 65° SW 04:32:19 10° S
SL-16 R/B 2.0 04:27:57 35° SSW 04:30:29 84° WNW 04:36:11 10° NNE
Tiangong 2 3.8 04:32:51 15° NE 04:32:51 15° NE 04:33:30 10° NE
DELTA 2 R/B (1) 3.5 04:30:38 68° NNW 04:31:12 75° NNE 04:36:45 10° ESE
Cosmos 1975 Rocket 3.7 04:38:00 42° SSW 04:38:00 42° SSW 04:41:01 10° S
Cosmos 1812 3.9 04:39:51 18° NNE 04:42:19 43° E 04:46:00 10° SSE
Lacrosse 5 4.2 04:38:24 10° S 04:42:29 24° ESE 04:46:33 10° ENE
Cosmos 923 Rocket 4.0 04:45:49 52° W 04:46:20 54° WNW 04:51:33 10° N
Iridium 2 4.1 04:43:29 10° S 04:47:14 61° E 04:50:59 10° N
USA 32 4.5 04:42:44 10° N 04:47:55 62° E 04:53:04 10° SSE
Cosmos 1536 Rocket 4.4 04:48:54 10° N 04:53:14 50° E 04:57:30 10° SSE
Cosmos 972 4.5 04:55:40 22° NNW 04:59:14 68° WSW 05:04:17 10° S
Ariane Rocket 3.5 04:54:46 10° NNE 04:59:46 60° ESE 05:04:45 10° S
Cosmos 2237 Rocket 4.1 05:05:58 13° NNW 05:05:58 13° NNW 05:06:47 10° NNW
Radarsat Rocket 4.5 04:58:15 10° NNE 05:05:19 83° WNW 05:13:18 10° SSW
Okean 1 Rocket 4.4 05:03:59 10° SSE 05:08:09 42° E 05:12:19 10° NNE
Meteor 1-18 Rocket 4.2 05:05:01 10° NNW 05:10:55 74° W 05:16:49 10° S
COSMO-SKYMED 1 2.5 05:08:55 10° S 05:13:15 83° WSW 05:17:36 10° NNW
CRYOSAT 2 4.3 05:08:38 10° S 05:13:30 84° W 05:18:25 10° N
Gbstr 26 Del rocket 3.0 05:12:20 28° NW 05:14:45 82° NE 05:18:46 10° SE
Cosmos 1680 Rocket 3.9 05:10:37 10° SW 05:15:26 37° WNW 05:20:17 10° N
USA 129 4.4 05:18:46 10° ESE 05:20:09 18° ENE 05:21:36 10° NNE
GPS 2-05 Rocket1 2.8 05:19:02 35° W 05:20:23 75° N 05:24:01 10° E
Cosmos 1633 3.5 05:17:22 10° S 05:20:55 50° E 05:24:28 10° NNE
USA 215 4.0 05:15:55 10° NNE 05:21:30 31° NNW 05:24:53 20° WNW
Cosmos 921 Rocket 3.1 05:19:30 10° NNW 05:24:01 89° NE 05:28:31 10° SSE
Cosmos 292 Rocket 4.4 05:21:58 10° SW 05:26:18 32° WNW 05:30:39 10° N
CSL-04 Debris 4.4 05:22:07 10° NNE 05:27:35 75° ESE 05:33:03 10° S
Cosmos 1603 3.6 05:22:05 10° SSW 05:27:47 76° WNW 05:33:28 10° NNE
CSL-04 Rocket 3.7 05:23:53 10° NNE 05:29:28 88° WNW 05:34:58 10° SSW
Cosmos 2074 Rocket 4.2 05:23:59 10° SSW 05:29:59 47° W 05:36:00 10° N
Cosmos 2369 Rocket 4.0 05:30:50 10° N 05:35:47 29° ENE 05:40:41 10° ESE
Cosmos 1300 Rocket 3.6 05:37:56 10° SSW 05:42:16 55° W 05:46:38 10° N
Cosmos 2184 Rocket 4.4 05:37:00 10° SW 05:42:38 37° WNW 05:48:19 10° N
CENTAUR R/B 3.9 05:44:34 14° WNW 05:47:23 18° NW 05:51:48 10° N
Abrixas rocket 2.6 05:46:37 10° SW 05:49:57 69° SE 05:53:18 10° ENE
Kosmos-1675 3.2 05:49:12 10° SW 05:51:27 75° NW 05:58:33 10° NNE
Okean 1 4.2 05:49:53 10° NNW 05:53:26 29° W 05:56:56 10° SSW
Cosmos 1943 3.3 05:50:31 10° SSW 05:56:07 82° ESE 06:01:46 10° NNE
Cosmos 2154 Rocket 4.1 05:51:34 10° SSW 05:57:40 58° W 06:03:46 10° N
Meteor 1-11 Rocket 3.8 05:52:44 10° SSW 05:58:35 62° W 06:04:20 10° N
CZ-2C R/B 2.8 05:55:40 10° NNE 06:00:51 74° ESE 06:05:55 10° S
Meteor 1-19 Rocket 4.3 05:55:42 10° NNW 06:01:34 78° W 06:07:19 10° S
OAO 3 Copernicus 4.3 05:58:56 10° W 06:04:02 87° N 06:09:09 10° E
Tiangong 2 2.9 06:05:13 10° NW 06:07:33 19° N 06:09:54 10° NE
SPOT 3 Rocket 3.7 06:05:31 10° NNE 06:10:42 85° ESE 06:15:50 10° SSW
